Wind_Speed
26 26 25 24 23 23 22 21 20 19 17 16 14 12 10 9 9 9 9 10 11 11 9 6 4 3 3 3 4 5 6 7 9 8 6 4 2 2 1 3 5 8 9 10 13 14 12 12 11 10 10 11 14 19 21 20 20 19 17 16 15 12 9 8 4 4 3 3 5 7 7 10 15 15 14 14 13 12 11 11 11 13 14 13 12 7 5 5
27 26 25 25 24 23 22 22 21 19 18 16 14 13 11 10 9 9 10 10 12 11 9 7 5 3 3 2 4 5 7 8 10 9 7 4 2 2 0 3 5 7 9 11 14 15 13 12 13 11 11 11 13 17 18 18 19 19 18 17 15 10 7 6 5 5 3 1 4 7 9 11 14 15 15 14 13 12 11 12 10 12 13 11 11 8 7 7
27 26 26 25 24 24 23 22 21 20 18 17 15 13 12 10 10 10 10 11 12 12 10 7 5 3 2 2 4 6 7 8 10 10 7 5 3 1 2 4 6 8 10 12 14 14 14 13 14 13 11 11 13 15 14 14 17 18 17 15 14 8 4 3 3 3 3 4 7 10 13 14 15 16 16 14 14 13 12 10 9 11 11 9 10 9 8 9
27 27 26 25 25 24 23 23 22 21 19 17 15 14 12 11 11 11 11 12 13 13 11 8 5 3 2 1 3 6 8 8 10 10 7 5 3 2 2 5 7 9 11 13 13 14 14 13 13 12 11 11 14 15 14 14 15 17 16 12 10 7 3 0 1 3 4 6 9 11 13 13 14 14 13 12 12 11 10 9 9 11 10 8 9 9 9 8
27 27 27 26 25 24 23 23 22 21 20 18 16 14 12 11 12 12 12 13 14 14 11 9 6 4 3 1 3 6 8 8 9 10 7 6 4 2 2 5 7 9 11 13 13 13 13 11 11 11 10 12 14 16 16 13 12 13 12 10 9 7 2 2 3 3 3 5 9 9 8 9 10 10 9 9 8 7 7 8 9 10 10 9 10 10 8 8
26 26 27 26 25 24 24 24 23 22 20 18 16 14 13 12 13 13 13 14 15 14 12 10 7 5 4 1 3 5 8 9 9 9 7 6 4 3 3 4 6 9 10 11 12 12 12 10 10 9 8 11 14 16 15 12 12 11 10 12 11 10 6 6 4 2 1 2 4 3 3 4 5 8 8 7 6 5 6 7 8 9 10 10 10 10 9 8
26 26 26 26 25 24 24 24 23 22 21 19 16 14 13 13 14 14 14 14 15 15 13 10 7 6 4 1 3 5 8 10 10 9 7 5 4 3 3 3 6 8 9 10 10 11 11 10 9 6 5 9 11 12 14 13 12 9 8 9 9 10 7 9 6 3 2 1 4 6 6 6 10 13 10 7 5 4 6 7 8 9 10 10 10 10 9 8
26 26 26 26 25 24 24 24 23 22 21 19 16 14 14 14 15 15 14 15 16 15 14 11 9 7 4 1 2 4 7 9 10 8 6 5 4 4 4 4 5 7 8 8 10 10 10 9 8 5 4 7 8 10 13 14 9 6 5 5 6 9 4 7 7 7 5 5 9 13 13 14 14 14 12 8 6 5 7 8 9 9 10 12 12 11 11 10
25 25 26 26 25 24 24 24 24 23 21 18 16 15 15 16 15 15 15 15 17 16 14 12 10 7 4 1 1 4 6 9 9 8 6 5 4 4 5 5 5 6 7 8 9 9 9 8 7 6 4 5 8 11 13 12 8 6 4 3 5 8 4 4 6 8 9 10 14 15 14 17 12 9 11 9 8 8 8 9 8 8 10 11 12 12 12 11
24 25 25 25 25 24 24 24 24 23 21 19 17 16 16 16 16 16 15 16 17 16 14 12 10 8 5 2 1 3 5 8 8 7 6 4 4 5 5 6 8 8 8 8 8 9 9 9 8 6 6 8 13 13 12 11 9 8 8 6 7 9 6 5 7 9 10 12 12 12 15 18 14 10 12 11 10 10 9 8 7 8 9 9 10 12 12 12
24 24 24 25 25 24 24 24 23 22 20 19 18 17 17 17 17 16 16 17 17 17 14 12 10 8 6 3 1 3 5 7 7 7 6 5 5 5 6 8 9 10 10 10 11 11 10 11 9 7 10 14 16 14 12 11 10 13 13 8 6 7 7 7 9 11 10 8 7 11 16 19 17 14 14 11 9 9 8 8 8 8 8 7 8 9 10 10
23 23 24 24 24 24 24 23 23 22 20 19 19 18 19 18 18 17 17 17 18 17 14 13 11 9 6 4 2 2 4 6 6 6 6 5 5 6 7 8 9 10 11 11 12 11 10 10 8 9 14 16 14 11 11 12 13 15 14 8 5 5 7 9 11 11 7 8 8 12 18 19 18 16 12 10 9 9 8 9 9 9 7 7 8 7 6 6
23 23 23 24 24 24 24 23 23 22 21 20 20 20 20 19 19 18 17 18 18 16 15 13 12 10 7 5 2 1 3 5 6 6 5 4 5 6 7 9 10 10 10 10 11 11 9 9 9 12 15 14 10 9 10 12 13 13 12 8 4 4 7 8 10 10 9 10 12 15 19 20 19 17 13 11 12 11 10 11 11 11 8 8 8 7 5 5
23 23 23 24 24 24 24 24 23 22 22 21 21 21 21 20 19 19 19 18 18 17 15 14 12 11 9 6 3 0 2 4 5 6 4 3 5 6 7 8 10 10 10 11 12 12 12 12 13 13 13 10 9 9 9 11 12 12 10 7 4 2 5 7 10 11 11 13 15 18 21 22 23 21 16 12 12 11 11 12 11 11 10 9 8 7 6 7
23 23 23 23 24 24 24 24 24 23 22 22 23 22 22 21 20 20 19 19 18 17 16 14 13 11 10 7 4 1 1 2 4 5 4 3 4 5 6 7 8 10 11 12 13 14 15 15 15 14 12 10 10 10 10 10 11 11 8 6 4 1 2 7 10 11 12 14 16 18 22 24 25 25 18 12 10 10 10 11 10 10 10 10 10 9 9 9
23 23 23 24 24 24 25 25 24 24 23 23 23 23 23 22 21 21 20 19 19 17 16 14 13 12 10 8 5 2 1 1 4 5 4 3 4 5 5 5 7 9 12 14 15 16 18 18 17 16 13 12 12 11 10 9 10 10 8 5 3 2 2 6 8 9 11 13 14 17 21 23 25 26 20 13 10 9 11 12 11 10 10 10 11 12 11 11
23 23 23 24 24 24 25 25 25 25 24 24 24 24 23 23 22 21 21 20 19 18 16 15 14 13 10 8 6 3 2 1 3 5 4 3 3 5 5 3 5 8 12 14 15 18 20 19 17 15 13 13 13 10 8 8 7 8 6 3 1 4 4 4 7 7 10 11 12 16 20 21 23 25 20 14 10 10 13 14 13 12 12 12 13 14 13 12
23 23 23 23 24 25 25 25 25 25 25 25 24 24 23 22 23 22 21 20 19 18 17 16 15 14 11 9 7 4 2 0 3 4 3 3 3 3 4 4 6 8 10 13 15 17 18 17 15 12 11 11 10 8 8 8 7 7 6 1 4 7 4 4 5 6 9 9 10 14 16 17 21 22 19 13 11 12 14 14 13 13 14 14 15 15 14 13
23 23 23 24 24 25 25 25 25 25 25 25 25 24 23 23 23 22 21 21 21 20 19 18 16 14 11 9 8 6 3 1 2 3 3 2 2 3 4 5 7 9 10 11 14 16 16 16 13 10 9 9 9 10 11 11 10 9 7 4 3 6 2 3 3 5 8 10 11 13 13 14 18 18 16 11 10 11 13 13 13 14 14 14 14 14 14 14
23 23 23 23 24 24 25 25 25 26 26 26 25 24 24 23 23 22 22 22 22 21 20 19 18 15 12 9 9 8 4 2 1 2 3 2 2 2 4 6 8 9 9 10 13 15 15 15 13 12 10 11 12 14 14 14 12 12 10 7 5 6 3 1 2 6 10 11 12 14 13 13 15 13 12 9 7 9 11 11 11 12 13 12 13 14 14 15
23 23 23 24 24 24 24 25 26 26 26 26 25 25 24 24 23 23 22 22 22 22 21 19 19 17 14 10 9 10 7 4 0 2 4 3 2 0 4 6 7 8 9 10 12 13 14 14 14 14 14 15 17 18 17 15 14 13 13 10 8 9 5 4 7 10 12 12 14 14 14 14 12 8 8 7 5 7 10 10 10 11 11 11 11 13 13 15
24 24 24 24 24 24 25 25 25 25 25 25 25 25 25 25 24 24 23 23 22 22 21 20 19 18 14 11 8 10 10 5 0 2 3 2 1 2 5 6 6 7 9 12 12 13 15 14 14 16 17 19 21 21 19 17 15 11 9 10 11 12 8 6 8 9 11 14 15 15 15 13 7 4 6 5 3 6 8 9 10 11 11 11 11 12 13 14
24 24 24 24 25 25 25 25 26 25 25 25 25 25 25 25 25 25 24 24 24 23 22 20 19 18 15 12 8 7 9 5 2 1 1 0 1 3 6 6 6 7 10 13 13 14 15 15 16 17 18 21 23 23 21 18 14 8 6 9 12 13 9 7 8 9 12 15 15 15 13 8 4 4 5 4 3 5 8 9 11 11 11 11 12 13 13 15
24 25 25 25 26 26 26 26 26 25 25 25 25 26 26 26 26 26 25 25 25 24 23 21 20 18 15 12 10 8 8 5 3 2 1 1 3 4 6 5 6 8 11 12 11 13 14 14 17 18 18 22 25 24 20 17 13 10 9 11 12 12 9 8 11 13 14 15 14 14 11 5 4 5 5 3 2 5 7 8 10 11 11 12 13 14 15 17
24 25 25 26 26 27 27 27 26 26 26 26 26 26 26 27 27 26 25 25 25 24 23 22 20 18 15 12 10 10 8 5 4 3 1 2 3 5 6 6 7 9 11 10 10 12 14 16 18 19 20 22 23 21 19 16 13 13 14 13 12 12 13 14 15 17 17 17 16 15 12 8 7 5 3 3 2 4 5 6 8 10 11 11 13 15 16 18
24 25 26 26 27 28 28 28 27 27 26 26 26 27 27 27 28 27 26 26 25 24 23 22 20 19 17 14 12 12 10 7 5 2 2 3 3 4 6 7 8 11 11 11 11 13 17 20 21 20 20 21 19 17 17 17 16 16 16 16 15 15 17 18 18 19 20 21 21 18 16 13 8 3 1 2 2 2 2 4 7 9 11 12 13 15 17 19
25 26 27 27 27 28 29 29 28 27 27 26 27 27 28 28 28 27 26 26 26 25 24 22 21 19 18 16 14 14 12 8 5 3 3 4 4 5 8 10 10 11 10 10 11 12 15 18 19 17 17 19 18 16 17 18 19 20 19 19 18 18 19 19 19 21 22 24 23 20 20 15 8 2 2 2 2 4 2 2 5 9 13 14 15 17 19 21
25 26 27 28 28 29 29 29 28 28 27 27 27 28 28 28 28 27 27 26 26 25 24 23 21 19 18 16 15 15 13 10 8 5 5 6 7 7 9 12 13 11 10 9 8 9 11 12 12 12 15 16 16 16 17 18 20 24 25 23 21 21 21 21 22 22 23 23 22 22 21 15 7 3 4 3 5 7 4 3 6 10 14 15 16 18 20 21
26 26 27 28 29 30 30 30 29 28 27 27 27 28 29 29 28 28 27 27 26 25 25 24 22 20 19 18 17 15 13 11 9 8 8 8 9 10 11 13 13 11 11 10 9 9 9 8 8 9 11 12 12 13 16 17 20 24 27 27 26 25 25 25 24 22 23 23 23 24 22 16 8 4 5 6 8 8 5 4 7 10 13 15 16 17 19 21
25 27 28 29 30 30 31 30 29 28 28 28 28 28 29 28 28 28 27 26 25 25 24 24 23 22 21 20 18 16 14 12 10 10 10 9 11 13 12 10 10 11 10 9 10 10 9 8 8 8 9 10 12 14 16 16 18 22 27 29 29 29 28 28 26 24 25 26 25 25 22 18 10 6 7 7 7 6 5 5 7 9 12 15 15 16 18 20
25 27 28 29 31 31 31 31 29 29 28 28 29 29 29 28 28 28 27 25 24 23 23 24 24 23 23 22 20 17 14 12 12 11 10 10 12 13 10 9 11 12 10 9 11 11 9 8 10 10 9 9 10 13 14 14 16 19 22 25 28 29 28 27 27 27 27 25 23 23 22 19 12 7 7 6 5 5 6 6 7 9 12 14 15 16 18 19
24 26 28 30 31 32 32 31 30 29 28 29 29 29 29 28 28 27 26 25 24 23 25 26 24 24 24 23 21 18 15 13 13 13 11 11 12 12 11 11 13 11 9 10 11 12 12 11 11 10 6 5 7 10 11 12 14 15 15 18 23 26 26 25 25 25 24 22 21 22 22 20 14 8 7 6 6 6 7 7 9 11 13 14 15 17 18 19
23 25 27 30 32 32 32 31 30 29 28 29 29 29 29 28 27 27 27 27 27 26 27 27 26 26 25 24 21 19 17 16 15 14 12 11 11 12 12 13 14 12 10 12 12 12 14 12 12 10 4 4 7 9 10 13 14 15 15 16 19 23 24 24 23 22 20 20 22 23 22 20 15 12 10 9 8 9 9 10 12 13 14 15 16 18 19 20
23 24 26 29 32 33 32 31 30 29 28 28 28 28 28 26 27 28 28 30 31 29 28 27 28 28 26 24 22 21 19 17 15 14 12 11 11 11 12 13 13 11 12 15 13 13 15 13 12 11 7 7 8 8 11 13 14 15 17 17 18 20 21 20 20 20 19 20 23 25 25 21 17 15 14 12 10 10 12 13 13 14 15 16 17 19 19 21
23 24 26 29 32 33 33 32 31 30 29 28 28 27 26 25 27 29 31 32 32 30 27 27 28 27 25 24 23 23 20 16 15 15 13 13 12 10 11 12 12 12 14 16 15 14 14 14 14 15 13 11 10 10 11 12 13 15 17 17 17 18 17 17 18 19 19 20 22 25 25 22 18 17 16 14 13 12 13 14 15 15 16 17 19 20 21 23
23 24 26 28 31 33 33 32 32 30 29 29 28 26 25 27 29 31 32 33 32 30 28 27 27 26 24 23 22 21 19 18 17 16 15 13 10 9 9 10 12 15 14 15 17 16 13 13 15 15 14 12 11 12 12 12 13 16 18 17 18 19 17 16 16 16 17 19 21 23 24 23 20 18 17 16 15 15 15 15 16 17 17 19 20 21 22 24
23 24 26 28 30 32 33 33 33 31 30 29 27 26 26 28 31 32 33 32 32 31 30 28 27 27 26 24 21 20 20 19 17 16 16 13 9 7 7 8 12 16 16 16 17 17 14 13 12 12 12 12 13 14 14 14 14 16 19 19 19 19 18 17 17 17 17 19 21 22 23 23 22 19 18 18 18 18 17 16 17 18 19 20 22 23 23 24
23 24 25 28 30 32 33 34 33 32 31 29 27 26 28 30 32 33 34 33 32 32 32 31 28 27 27 25 24 23 22 21 18 16 16 13 9 8 7 8 11 15 17 16 16 16 15 12 12 12 11 13 17 17 17 17 16 15 18 20 20 19 18 18 19 19 18 20 21 22 24 23 22 21 20 19 20 20 18 17 18 19 20 21 23 23 24 24
23 24 25 27 29 30 32 34 34 33 32 29 27 27 29 31 32 34 35 34 33 32 33 34 29 26 27 26 25 25 24 22 20 18 15 13 10 10 10 10 12 15 18 15 15 16 14 11 12 15 15 17 20 19 18 20 19 17 15 17 19 19 19 20 20 21 19 20 22 22 23 22 21 21 21 20 21 21 19 18 18 19 20 22 23 23 24 25
24 24 25 26 27 29 31 33 33 33 32 29 28 29 31 32 34 36 36 35 35 34 34 33 30 27 26 24 23 25 25 23 21 20 18 16 14 13 12 13 13 17 19 17 15 16 15 12 13 17 20 19 20 20 21 22 22 19 16 16 17 18 20 21 22 22 21 22 23 24 24 21 20 21 22 21 22 21 19 19 19 20 21 23 24 24 24 25
25 25 25 26 27 28 30 31 32 33 32 30 30 31 33 35 35 37 38 36 35 35 34 32 31 29 26 23 22 24 25 23 23 22 21 19 18 15 14 14 16 18 20 18 17 17 15 14 14 18 21 20 20 22 24 24 23 21 19 18 18 18 20 21 22 23 23 25 25 26 25 20 18 20 21 21 21 20 19 19 20 21 23 24 24 24 25 25
26 25 26 27 27 28 29 31 32 33 32 31 32 34 36 38 37 37 39 37 36 35 34 32 32 31 29 26 25 26 26 25 26 25 23 21 20 17 16 17 17 19 20 19 19 18 16 16 17 19 22 23 24 26 26 26 25 23 22 21 21 22 22 23 24 24 26 26 25 26 25 19 16 18 19 20 20 20 20 20 21 23 24 25 25 25 25 26
27 27 27 28 28 28 29 30 31 32 33 33 34 36 39 39 38 37 39 39 37 35 35 34 32 31 30 29 28 29 28 28 28 28 26 24 21 19 20 20 20 20 20 19 19 19 18 19 20 22 24 25 26 27 28 27 26 24 24 23 23 24 24 24 25 25 27 26 23 24 24 19 18 20 20 19 19 20 21 22 23 24 25 26 26 25 25 26
28 28 28 28 29 29 29 30 31 32 33 33 33 35 38 39 39 39 40 40 40 38 37 36 33 31 30 30 31 31 31 31 31 31 29 26 24 22 22 23 23 22 21 20 20 21 21 22 23 24 26 27 28 28 27 27 25 23 24 25 25 25 25 26 26 27 28 27 24 25 24 22 22 24 22 21 21 22 23 23 24 25 26 26 26 25 25 25
29 29 30 29 29 29 30 30 31 31 31 32 31 33 36 38 40 42 42 42 41 40 40 38 35 33 32 32 32 32 32 32 32 32 30 27 25 24 25 26 25 24 24 23 23 24 25 27 27 28 29 29 28 28 27 26 26 24 24 26 27 28 29 29 28 29 30 28 28 28 27 25 25 25 23 23 23 24 24 24 24 25 26 26 25 25 25 25
29 30 31 30 29 30 31 31 31 31 30 31 30 31 34 37 39 43 45 43 42 41 41 40 37 35 34 35 35 35 34 33 33 32 31 29 26 25 27 29 29 29 28 28 29 29 28 28 29 29 29 28 27 27 27 27 27 27 27 28 29 31 32 31 31 31 31 31 30 30 30 28 26 25 24 24 25 25 25 24 24 25 27 26 25 25 25 25
30 31 31 31 30 30 31 32 31 31 31 31 30 31 34 35 38 42 45 45 44 43 42 42 41 39 36 35 37 38 37 37 36 35 34 31 29 29 30 32 32 33 33 33 34 34 30 28 28 27 27 26 26 26 26 26 27 28 29 30 31 33 32 31 32 31 32 33 32 30 30 30 27 25 25 25 25 26 26 26 26 27 27 26 26 25 25 26
31 31 32 32 31 31 32 32 32 31 32 32 31 32 34 35 37 41 43 44 45 45 44 42 41 40 38 34 35 39 40 39 39 39 38 35 32 32 33 33 34 36 36 36 37 36 32 30 30 29 28 28 27 28 28 28 28 29 30 31 32 33 33 32 32 32 33 35 33 30 31 31 28 26 26 26 27 28 27 27 27 27 27 27 27 26 26 27
32 33 33 33 32 31 32 32 32 32 33 33 32 33 34 34 35 38 40 41 43 44 44 42 40 40 40 37 36 39 41 41 40 40 40 39 37 36 35 36 37 37 37 37 37 37 35 33 34 33 32 32 32 32 33 33 32 31 31 32 32 33 34 34 34 33 34 35 34 31 31 31 28 27 28 29 30 29 28 28 28 27 27 27 28 27 27 28
34 34 34 34 33 33 33 33 32 32 33 33 33 34 34 34 35 36 37 38 41 43 44 43 40 39 40 39 39 40 41 42 42 42 42 42 42 40 39 39 39 39 39 39 39 39 37 36 38 37 36 37 37 37 37 36 35 34 33 33 33 34 34 35 34 34 35 36 34 32 32 31 28 28 29 30 30 30 29 29 29 28 27 28 29 29 29 31
36 36 36 36 35 34 34 34 33 33 34 34 34 35 34 34 35 35 36 37 39 41 42 42 40 39 39 38 39 39 40 41 42 43 44 44 44 44 43 43 43 42 42 42 42 42 42 41 42 42 41 41 42 42 42 40 38 36 34 33 34 35 36 35 35 35 36 36 34 34 33 30 28 28 29 29 29 29 29 29 28 28 28 29 30 30 32 34
37 37 37 37 37 36 36 36 35 34 34 34 34 35 35 35 35 35 36 37 38 39 40 40 40 40 40 38 39 40 40 41 42 43 45 46 46 45 45 46 46 46 46 46 45 45 46 45 45 45 45 45 45 44 43 42 39 35 33 33 35 36 37 37 36 36 36 36 35 34 33 31 29 30 30 30 30 28 28 28 28 28 30 31 32 33 35 35
Wind_Direction
217 216 215 214 214 214 213 213 212 213 213 212 212 208 198 188 187 185 180 172 166 162 161 163 155 130 99 60 32 18 6 360 356 358 359 354 305 277 248 185 181 189 189 186 187 184 172 160 155 155 163 163 160 170 178 182 186 186 174 163 164 161 174 186 159 157 212 312 327 326 328 312 314 318 318 323 325 326 338 354 356 4 20 24 25 52 115 114
219 218 218 216 216 215 214 214 214 215 215 214 214 211 202 193 190 189 184 176 170 167 169 173 166 141 105 61 35 23 8 3 1 3 5 5 354 319 185 168 175 176 182 186 189 191 182 169 167 168 175 178 172 175 182 189 191 190 186 179 179 183 190 189 188 189 191 288 293 299 300 295 300 303 303 313 325 331 340 351 352 0 16 17 16 42 110 124
219 220 220 218 218 217 215 214 215 216 217 216 215 212 205 196 192 191 187 180 174 172 176 178 171 149 118 72 47 27 9 5 3 5 12 18 18 15 131 164 171 168 178 187 190 193 189 181 179 183 193 194 187 185 188 194 195 191 193 194 197 211 217 186 194 215 236 268 281 290 292 291 292 293 298 314 331 336 340 345 343 354 9 8 11 41 93 117
218 219 220 220 219 218 217 216 217 218 218 218 217 214 208 197 194 193 189 183 178 178 180 182 176 161 149 90 57 30 11 5 5 9 17 26 33 48 129 166 171 169 179 186 189 193 193 190 188 193 204 209 203 195 195 202 203 204 207 204 198 205 211 174 309 287 276 280 286 290 292 288 285 289 300 317 326 330 333 337 340 347 357 0 8 35 74 103
217 218 219 220 220 219 218 218 218 219 220 221 219 217 209 199 195 194 191 186 181 182 183 184 182 175 177 119 61 33 15 5 5 14 22 30 45 64 118 163 171 173 183 187 189 195 198 199 197 199 208 221 217 207 207 210 215 218 202 169 152 149 124 359 328 324 311 287 279 279 279 270 272 289 308 316 312 320 328 331 339 338 344 354 358 13 48 76
217 217 218 219 219 220 219 219 219 220 222 223 222 217 208 200 197 196 194 188 185 185 186 188 187 183 189 151 59 35 17 9 10 19 27 34 51 74 104 154 167 174 188 190 190 195 198 202 207 206 217 232 227 218 219 216 214 206 169 146 134 119 79 27 13 20 321 284 290 298 287 273 298 322 329 331 321 321 324 325 330 328 335 347 346 354 16 42
218 218 218 218 219 219 220 220 220 222 223 224 222 215 207 201 199 198 195 190 188 188 190 190 189 187 193 169 54 31 16 14 16 24 31 38 54 77 97 137 159 173 189 191 188 191 194 202 209 206 231 241 234 225 224 219 211 189 151 150 137 121 80 31 37 93 118 57 29 42 46 27 13 3 355 353 334 310 311 318 323 323 328 334 335 340 350 7
221 219 218 217 218 218 219 220 221 223 224 223 219 212 206 202 200 199 197 192 190 191 193 193 191 191 196 174 47 22 14 17 21 28 36 42 60 85 102 119 148 169 179 183 184 187 190 198 202 191 212 233 232 230 225 213 196 155 142 156 143 137 101 28 50 87 85 64 56 54 46 35 26 11 2 347 321 308 315 324 327 331 331 329 330 330 334 343
223 221 218 217 217 218 219 219 221 223 223 221 216 210 206 203 201 201 198 195 192 193 196 195 194 194 197 197 35 18 13 18 24 31 42 51 67 92 109 114 124 143 159 173 180 184 186 191 195 186 184 203 210 214 206 188 156 130 143 158 151 145 127 42 70 91 84 76 68 55 36 27 22 5 356 333 318 333 338 335 332 337 338 331 325 322 325 329
224 222 219 217 216 217 218 219 220 222 221 219 214 210 207 204 203 202 201 197 194 196 198 197 194 193 196 207 6 18 13 19 26 34 49 64 79 99 118 120 118 123 137 152 162 175 183 187 190 179 166 171 179 181 167 155 143 139 146 146 145 138 121 84 95 111 96 85 76 53 32 23 12 4 358 334 324 343 347 344 341 345 344 332 322 321 323 323
224 223 220 217 215 216 217 218 219 220 219 216 213 211 207 204 204 204 203 199 196 197 199 198 195 193 196 210 290 18 16 19 28 36 52 74 91 110 131 134 131 132 140 150 159 172 181 186 189 169 165 171 173 168 149 143 143 147 150 139 128 130 115 86 99 124 108 84 77 46 30 16 9 14 3 341 342 351 354 355 356 1 358 349 337 330 327 328
224 223 220 217 215 215 215 216 217 217 216 215 213 210 206 205 204 204 203 199 197 198 200 200 197 196 201 212 229 10 16 19 30 38 50 81 104 119 138 148 150 149 154 160 163 172 181 189 189 173 178 185 181 169 152 149 148 153 157 138 101 101 100 87 92 111 94 55 52 34 20 9 10 19 5 354 12 12 12 14 15 22 20 16 3 349 341 347
223 222 220 217 214 213 213 214 215 215 214 213 211 208 206 205 204 204 202 198 198 199 201 200 197 196 203 210 208 10 15 20 33 39 49 87 118 131 148 160 166 167 168 169 167 170 175 175 171 176 188 190 178 164 158 159 158 161 162 146 118 79 83 85 77 73 53 38 33 19 9 4 8 12 5 8 21 21 25 30 28 28 25 22 14 8 9 10
220 220 218 216 213 211 211 211 212 212 211 210 209 206 204 204 203 202 200 198 198 200 201 200 200 199 204 207 198 123 15 21 36 42 49 92 131 146 161 169 174 178 179 181 175 162 155 156 161 175 187 180 166 165 167 170 168 170 169 154 140 83 72 71 58 45 34 25 21 12 3 1 359 358 1 11 22 28 32 31 26 18 11 8 6 7 2 357
217 217 216 214 211 209 208 208 209 209 208 207 206 204 203 202 201 200 199 197 198 199 200 200 202 203 207 208 204 214 26 38 44 47 51 95 133 149 163 173 179 182 182 184 177 158 152 156 162 171 178 174 169 167 165 167 166 168 171 158 146 187 62 62 47 30 21 17 17 5 357 359 352 347 355 7 20 37 38 29 19 10 4 1 1 2 357 352
215 214 214 212 210 207 206 205 205 205 204 204 204 202 201 200 199 199 198 197 197 197 199 201 201 203 209 211 209 206 141 64 47 48 56 100 130 139 150 173 183 181 181 181 171 159 160 163 169 176 179 178 172 167 162 159 160 164 169 163 160 255 306 44 42 17 7 13 12 356 354 359 348 342 348 357 17 37 33 23 17 13 10 8 6 4 359 354
213 212 211 210 208 205 204 203 202 202 202 202 202 200 200 199 198 198 197 197 196 196 198 199 200 202 208 215 216 202 167 73 50 55 66 107 132 132 140 178 197 185 182 180 171 165 168 173 181 185 184 178 170 168 163 156 155 157 163 172 230 270 288 21 32 358 350 3 360 349 353 355 345 339 339 349 16 25 21 20 17 16 14 12 11 6 1 356
211 209 208 208 206 204 202 201 200 199 199 200 199 199 199 199 198 197 196 195 195 196 197 197 199 201 206 215 217 199 170 126 58 66 76 111 132 134 145 187 223 215 199 186 177 173 176 184 190 190 189 186 184 182 171 164 157 141 131 115 290 288 307 23 18 334 330 339 334 339 346 345 342 336 330 347 14 16 16 17 14 11 10 13 13 8 4 359
210 207 205 205 203 202 200 199 198 197 197 198 197 198 198 199 199 198 196 195 194 195 197 197 197 199 202 207 213 204 182 173 66 81 86 111 115 118 155 190 222 231 221 199 185 182 188 194 193 188 188 191 195 190 184 181 168 149 134 127 248 271 311 33 344 291 294 304 309 322 329 331 338 331 322 343 14 14 13 14 10 4 5 12 13 9 4 358
209 205 203 202 201 199 198 197 197 195 196 197 197 197 197 198 199 198 198 197 195 195 197 198 196 195 194 199 222 228 203 179 103 74 58 66 76 90 177 200 214 221 224 213 198 194 198 199 190 180 178 183 188 191 196 195 176 165 165 163 211 231 189 134 249 250 269 287 299 312 318 321 330 323 311 332 11 17 13 12 5 358 360 6 8 5 1 355
208 205 202 201 200 199 197 197 196 195 195 196 197 197 196 196 197 197 198 198 197 196 196 196 197 197 193 197 228 245 233 212 208 33 33 38 50 72 207 212 219 216 213 211 206 202 201 199 192 182 179 182 187 195 201 197 181 173 180 189 223 240 223 186 209 234 259 280 295 308 315 315 320 314 302 320 3 17 14 9 0 359 360 0 4 1 356 353
208 205 201 200 200 199 198 198 196 195 195 196 197 197 196 195 195 196 197 197 198 198 197 196 198 198 192 191 214 245 248 236 187 49 41 34 70 210 220 222 228 222 211 205 203 204 200 197 195 193 195 196 197 203 206 200 191 182 190 206 227 246 244 212 222 250 268 283 296 306 311 312 320 313 299 317 6 12 8 2 355 0 1 358 2 356 350 349
207 205 202 200 200 199 199 199 197 195 195 196 197 197 197 195 194 195 195 195 198 199 196 194 197 195 188 189 198 231 248 233 144 123 101 89 189 213 227 226 226 223 218 213 208 207 203 203 206 204 205 205 205 210 213 209 200 190 211 225 233 248 255 240 255 279 280 285 297 303 306 314 345 344 310 313 19 11 1 357 349 351 356 357 357 351 347 348
206 205 202 200 200 200 200 200 198 196 196 197 197 197 198 196 194 194 194 195 198 198 195 193 196 193 187 190 194 209 231 215 159 162 176 185 197 219 228 219 222 227 227 229 226 217 211 214 216 208 201 204 205 209 215 216 208 200 215 233 239 247 253 249 258 270 277 288 299 300 304 322 353 354 328 307 19 13 354 350 344 340 346 352 353 349 349 349
206 204 203 201 201 201 201 201 199 197 197 197 198 198 198 197 195 193 193 195 197 197 196 194 194 193 188 189 196 207 220 210 180 176 207 214 208 224 231 223 228 238 241 244 241 230 222 222 220 208 198 200 202 207 215 220 219 216 221 232 238 242 246 249 256 265 276 292 298 298 303 313 331 350 328 300 356 359 342 347 341 334 337 346 352 350 349 346
207 204 203 202 202 202 202 202 200 199 198 198 198 198 198 199 197 194 193 194 195 196 196 195 195 196 192 186 196 213 218 208 199 206 232 240 243 234 231 230 235 243 251 258 254 239 228 224 221 209 198 197 197 203 214 219 225 231 232 234 236 239 245 251 261 273 285 292 293 295 300 306 322 337 262 270 310 296 318 348 338 332 332 339 346 345 342 338
210 206 203 203 202 203 203 202 202 200 199 199 199 199 199 200 199 195 194 194 195 197 196 195 196 199 197 189 194 214 219 210 211 227 230 243 255 237 225 227 235 242 249 258 252 235 224 219 214 206 202 203 201 202 211 216 224 232 235 238 239 242 248 253 263 277 287 289 290 294 297 299 306 270 191 188 232 230 235 324 333 332 330 330 335 337 335 330
212 209 205 203 203 204 204 203 203 202 201 200 201 201 201 201 200 197 194 194 197 199 198 198 198 198 200 196 199 214 220 212 213 226 233 240 247 238 226 225 228 228 227 228 219 212 214 212 208 206 211 214 211 209 212 216 223 229 232 235 237 240 245 251 262 276 284 287 291 292 289 289 285 210 174 180 208 217 233 297 326 329 325 324 326 331 332 326
214 212 209 205 203 204 205 205 203 203 203 201 202 203 203 202 201 197 195 196 198 201 202 202 202 200 201 203 206 216 221 214 211 224 232 235 241 240 233 231 232 227 218 204 188 198 208 210 216 218 218 219 211 206 211 215 223 231 234 236 238 240 243 249 258 269 279 286 288 284 281 282 274 205 179 196 208 222 250 299 315 320 320 320 321 325 325 320
216 214 212 208 206 205 205 206 205 204 204 203 203 204 204 203 201 198 198 199 200 204 206 206 205 203 204 207 208 214 222 218 213 224 234 235 240 242 239 237 235 231 223 199 190 204 207 208 220 212 207 213 204 201 209 215 225 236 239 239 241 244 245 249 252 257 271 281 280 277 277 278 264 201 192 210 215 237 269 290 301 311 313 314 316 317 315 313
219 217 214 211 209 207 206 206 205 205 205 204 204 204 204 203 201 199 199 200 202 204 205 206 207 206 205 206 208 214 219 218 220 229 239 240 244 247 239 229 228 229 225 206 199 205 198 196 205 196 191 203 207 214 219 222 231 243 246 242 242 245 247 248 248 252 265 274 272 270 271 269 254 205 209 234 242 265 279 288 301 309 307 307 309 309 308 309
222 220 217 214 211 209 208 207 206 205 206 206 205 204 204 203 201 200 200 201 202 203 203 203 204 205 205 207 212 215 210 209 223 234 241 242 245 247 233 221 226 224 216 214 210 202 192 189 191 184 183 209 222 234 234 231 235 243 249 244 239 242 247 250 251 255 264 266 262 264 266 266 259 237 242 267 281 286 292 300 306 306 302 302 303 304 306 309
223 222 219 217 214 211 209 208 207 206 206 207 206 205 205 202 200 200 201 202 202 204 204 202 202 204 206 209 213 214 206 208 223 233 240 244 247 245 230 223 229 225 215 217 217 204 197 200 197 184 195 238 229 240 244 237 234 234 238 239 237 241 249 256 259 261 262 257 255 261 265 266 265 259 262 276 288 296 301 304 304 302 300 301 302 304 307 309
224 224 222 219 217 214 211 209 208 207 208 208 207 206 203 200 199 199 201 204 204 205 205 205 206 207 208 211 212 211 208 212 221 224 230 242 247 239 224 225 230 227 217 212 215 214 205 205 205 201 226 242 228 244 254 246 240 237 236 237 240 245 250 258 262 263 261 254 253 259 262 263 263 262 265 273 286 298 304 305 303 301 301 302 303 306 309 311
224 224 223 221 220 217 213 210 209 208 208 208 207 205 199 195 198 199 202 205 205 204 204 206 209 209 209 211 211 210 208 209 216 220 223 230 232 221 215 222 221 218 218 213 219 224 212 208 214 220 234 238 234 249 257 253 249 246 243 241 242 246 249 253 258 261 261 256 254 257 259 260 259 260 265 273 284 296 302 304 303 300 300 300 302 305 309 311
224 224 223 222 221 220 216 213 211 210 208 207 205 200 194 194 197 199 202 204 203 202 203 204 207 208 205 203 206 208 207 206 212 217 216 215 214 209 209 214 212 214 217 214 218 224 220 220 224 231 244 250 252 259 263 263 260 255 252 248 246 247 245 247 255 259 261 263 262 261 261 262 262 263 267 275 281 288 294 298 299 299 298 299 302 305 308 310
223 224 224 223 221 220 218 216 214 212 209 207 203 196 193 195 198 200 202 203 203 204 204 204 205 205 200 197 201 206 206 209 211 207 205 205 209 216 213 208 212 214 211 211 216 219 218 224 233 245 259 271 277 279 279 278 274 269 265 258 253 253 249 249 257 263 267 271 271 269 268 267 267 268 271 275 280 285 290 292 294 297 299 301 303 305 308 309
223 223 224 224 223 221 219 218 217 215 212 208 200 193 193 196 198 201 202 201 203 206 207 207 205 204 202 200 204 208 209 210 207 200 203 206 209 217 216 217 220 217 215 220 228 227 220 222 241 254 260 275 283 284 283 283 286 285 275 265 261 262 261 260 262 265 271 276 276 272 269 267 267 270 271 274 281 288 290 287 289 294 298 301 303 306 309 307
223 223 224 225 224 223 222 220 219 217 215 208 198 192 193 195 197 201 202 202 204 206 209 209 205 203 205 205 206 210 211 208 201 199 205 210 212 217 217 220 222 218 222 230 233 235 233 228 244 258 263 273 280 282 283 285 290 289 279 272 270 268 266 264 263 265 272 284 283 275 270 266 265 266 266 271 280 286 285 284 288 294 297 299 302 307 309 305
224 223 224 225 225 224 224 223 221 220 218 209 198 192 192 194 199 203 204 204 205 208 211 212 206 203 205 205 207 213 213 208 201 201 207 211 216 221 218 215 213 215 224 231 228 231 238 236 245 262 270 276 282 287 287 286 286 281 272 275 280 278 273 267 264 263 270 284 285 278 275 272 266 263 264 269 275 278 281 286 291 294 296 298 302 307 307 301
226 224 225 225 225 224 224 224 223 222 220 212 200 195 194 196 201 206 206 205 206 208 212 215 212 206 204 206 211 216 216 210 204 206 212 215 216 219 219 215 210 213 224 233 234 234 239 243 251 262 272 280 284 286 286 284 282 276 270 271 276 280 278 272 267 266 272 282 282 278 278 277 269 265 266 270 273 276 282 287 290 292 294 297 302 306 304 298
229 226 225 225 226 225 224 224 223 222 221 216 205 199 199 200 202 208 209 206 207 210 211 214 215 211 207 209 212 215 216 213 210 212 219 223 221 217 216 216 214 218 226 233 239 244 246 250 256 262 270 277 279 281 283 282 281 278 275 273 272 274 275 271 269 270 275 281 282 279 279 279 272 268 270 275 277 279 284 286 289 292 294 297 301 303 301 298
231 229 227 226 226 227 226 225 225 222 221 219 210 203 203 202 204 211 214 209 207 211 212 212 215 217 216 216 214 214 217 218 217 219 223 228 229 221 214 215 216 221 229 235 242 248 251 253 258 262 267 271 273 276 279 282 285 283 278 274 271 272 274 273 274 276 279 282 284 281 279 280 280 279 282 284 282 283 284 285 288 291 294 298 301 303 302 299
233 231 228 226 227 228 228 227 227 225 223 222 216 209 207 206 205 212 218 215 210 210 212 213 216 221 225 224 220 218 221 222 222 225 228 230 232 226 218 217 218 223 230 236 241 247 250 252 254 257 260 264 268 272 278 284 286 283 278 275 275 277 280 281 282 283 284 288 290 284 280 283 286 288 289 287 284 284 285 285 288 291 294 299 302 305 304 301
233 232 230 227 227 230 231 229 228 228 227 226 222 215 212 210 208 212 220 222 217 213 212 215 217 221 227 230 227 225 225 225 225 229 233 233 230 226 223 222 224 227 231 234 236 238 242 245 247 249 253 258 264 269 275 280 282 282 281 280 281 283 285 286 286 286 288 290 289 285 284 286 286 286 286 284 283 282 282 284 289 292 296 300 304 304 302 300
234 233 232 229 228 230 232 231 230 230 229 227 226 221 217 214 212 215 220 224 226 221 217 217 220 223 227 231 232 231 229 226 226 230 235 236 230 225 225 227 228 229 230 232 231 230 235 243 247 251 255 260 266 269 270 273 277 280 281 281 282 284 285 285 285 286 288 288 286 286 289 287 284 281 279 277 276 277 281 286 291 295 298 301 302 300 298 299
234 234 233 232 230 230 231 231 231 231 230 228 227 225 223 219 215 217 220 223 228 230 225 222 223 225 229 231 231 231 231 228 227 230 233 235 231 227 227 229 231 232 232 232 231 230 236 248 255 259 263 266 271 274 273 273 275 276 277 277 279 281 282 283 283 285 286 285 284 286 287 283 280 278 276 275 277 281 287 292 295 297 298 298 298 297 297 298
235 235 235 233 231 230 231 232 231 232 231 230 228 226 225 224 220 220 222 222 225 230 231 228 225 225 229 230 227 227 230 230 228 229 231 233 233 232 231 232 234 236 237 237 238 238 243 252 260 265 268 271 274 276 276 276 276 274 273 274 276 278 281 284 284 284 284 283 283 284 282 280 280 281 280 282 284 287 290 293 295 295 295 296 297 297 297 297
235 236 236 235 233 231 232 232 231 232 232 232 232 229 228 228 226 225 225 224 225 229 231 231 229 226 228 229 225 224 226 228 228 229 231 232 233 233 234 235 238 241 242 243 245 247 250 255 262 266 269 271 273 275 277 277 275 273 272 274 276 278 280 283 284 283 282 281 282 282 280 280 282 284 285 286 287 289 291 294 295 295 295 297 298 297 296 295
235 235 236 236 235 233 233 233 232 232 232 232 232 232 230 231 231 231 230 229 228 230 232 233 231 229 228 229 228 225 224 226 228 229 231 233 234 234 235 238 241 244 245 247 249 252 254 258 263 267 269 271 274 277 278 278 276 274 273 275 277 277 278 279 281 281 280 279 280 279 278 280 283 283 284 285 286 290 294 297 297 297 298 298 296 295 294 293
236 235 235 236 236 235 235 235 233 233 233 232 232 232 232 232 234 235 235 234 232 232 234 234 232 230 230 231 232 230 228 227 227 228 231 233 236 237 237 239 241 244 247 249 252 255 257 259 264 268 270 273 276 277 277 277 276 274 273 275 276 276 275 276 278 279 280 280 280 279 280 281 281 281 282 283 286 291 296 297 297 297 297 294 292 291 292 292
236 235 235 235 236 235 236 236 236 235 235 234 233 233 233 232 234 236 237 237 235 235 236 236 234 232 231 232 234 234 233 231 229 229 230 233 235 238 239 241 242 245 248 252 254 258 260 262 266 269 272 274 274 274 275 276 275 274 275 275 275 275 276 277 278 279 280 281 281 281 282 282 281 282 284 285 288 292 294 294 294 295 293 290 288 289 291 293
Height
5907 5908 5910 5911 5913 5914 5915 5916 5917 5918 5919 5920 5920 5921 5922 5922 5922 5923 5923 5924 5924 5925 5925 5925 5925 5925 5925 5924 5923 5923 5921 5920 5920 5919 5918 5918 5917 5917 5917 5918 5918 5918 5919 5920 5920 5921 5922 5922 5922 5923 5923 5923 5923 5923 5923 5923 5924 5924 5924 5924 5924 5923 5922 5923 5924 5924 5925 5925 5925 5925 5926 5926 5926 5926 5925 5925 5924 5924 5924 5923 5922 5922 5922 5922 5922 5923 5922 5921
5906 5907 5909 5910 5912 5913 5914 5915 5916 5917 5918 5919 5920 5920 5921 5921 5922 5922 5923 5923 5924 5925 5925 5925 5925 5925 5924 5924 5923 5922 5922 5921 5920 5919 5918 5918 5917 5917 5917 5918 5918 5918 5919 5920 5920 5920 5922 5923 5922 5923 5923 5923 5923 5923 5923 5923 5924 5924 5924 5924 5923 5923 5923 5924 5924 5925 5926 5926 5926 5927 5927 5927 5927 5926 5926 5925 5924 5924 5923 5922 5922 5922 5922 5921 5922 5923 5922 5921
5904 5906 5907 5909 5910 5912 5913 5914 5915 5916 5917 5918 5919 5920 5920 5921 5921 5922 5922 5923 5924 5924 5924 5924 5924 5924 5924 5924 5923 5922 5922 5921 5920 5919 5919 5918 5917 5917 5917 5917 5918 5918 5919 5919 5920 5920 5922 5923 5923 5923 5923 5923 5923 5923 5924 5924 5924 5925 5925 5925 5924 5924 5924 5924 5924 5926 5926 5927 5927 5928 5928 5927 5927 5926 5926 5925 5924 5922 5921 5921 5921 5921 5921 5922 5922 5923 5922 5921
5903 5904 5906 5908 5909 5911 5912 5913 5914 5915 5916 5917 5918 5919 5920 5920 5921 5921 5922 5922 5923 5923 5924 5924 5924 5924 5924 5923 5923 5923 5922 5921 5920 5919 5919 5918 5917 5917 5917 5917 5918 5918 5919 5919 5920 5920 5921 5923 5923 5923 5923 5923 5924 5924 5925 5925 5925 5925 5926 5926 5925 5925 5925 5925 5925 5926 5927 5927 5927 5928 5927 5927 5927 5926 5925 5925 5924 5922 5921 5921 5922 5921 5921 5921 5922 5922 5922 5922
5901 5903 5904 5906 5908 5909 5911 5912 5913 5914 5915 5916 5917 5918 5919 5920 5920 5921 5921 5922 5922 5923 5923 5924 5924 5924 5923 5923 5923 5923 5922 5921 5920 5919 5919 5918 5917 5917 5917 5917 5917 5918 5918 5919 5920 5920 5921 5922 5923 5923 5923 5923 5924 5924 5924 5925 5925 5926 5926 5925 5925 5925 5926 5926 5926 5927 5927 5927 5927 5927 5927 5927 5927 5927 5926 5925 5924 5923 5922 5922 5922 5921 5921 5921 5921 5922 5922 5921
5899 5901 5902 5904 5906 5908 5910 5911 5912 5913 5914 5915 5916 5917 5918 5919 5919 5920 5920 5921 5922 5922 5923 5923 5923 5923 5923 5923 5923 5923 5922 5921 5920 5919 5919 5918 5917 5917 5917 5917 5917 5918 5918 5918 5920 5920 5921 5922 5923 5923 5923 5923 5923 5923 5924 5924 5925 5926 5925 5925 5925 5926 5927 5927 5926 5927 5927 5927 5927 5928 5928 5928 5928 5928 5927 5926 5925 5923 5922 5922 5921 5921 5921 5920 5920 5921 5921 5921
5897 5899 5900 5902 5904 5906 5908 5909 5911 5912 5913 5914 5916 5917 5917 5918 5918 5919 5920 5920 5921 5922 5922 5923 5923 5923 5923 5923 5923 5923 5922 5921 5920 5919 5919 5918 5918 5917 5917 5917 5917 5918 5917 5918 5920 5920 5921 5922 5922 5923 5923 5923 5923 5922 5923 5924 5925 5925 5924 5924 5926 5927 5927 5927 5927 5927 5927 5928 5928 5928 5929 5930 5929 5928 5927 5926 5925 5924 5923 5922 5921 5921 5920 5920 5920 5920 5920 5920
5895 5897 5899 5901 5903 5904 5906 5908 5909 5911 5912 5913 5915 5916 5916 5917 5917 5918 5919 5920 5920 5921 5921 5922 5922 5922 5923 5923 5923 5923 5922 5921 5920 5920 5919 5918 5918 5918 5917 5917 5918 5918 5918 5918 5919 5920 5921 5922 5922 5922 5922 5922 5923 5923 5923 5924 5925 5924 5924 5925 5926 5928 5928 5928 5929 5928 5928 5929 5929 5929 5930 5930 5930 5928 5927 5926 5925 5924 5923 5923 5922 5921 5920 5919 5919 5919 5919 5919
5893 5895 5897 5899 5901 5903 5904 5906 5907 5909 5911 5912 5913 5914 5915 5916 5916 5917 5918 5919 5919 5920 5921 5921 5922 5922 5922 5923 5923 5922 5922 5921 5921 5920 5919 5919 5918 5918 5918 5918 5918 5918 5918 5919 5919 5921 5922 5922 5922 5922 5922 5922 5923 5923 5924 5925 5924 5924 5925 5925 5926 5928 5929 5930 5930 5930 5930 5930 5930 5930 5931 5930 5930 5929 5927 5925 5925 5924 5924 5923 5923 5922 5920 5919 5918 5918 5918 5919
5891 5893 5895 5897 5899 5901 5902 5904 5906 5907 5909 5911 5912 5913 5914 5915 5915 5916 5917 5918 5918 5919 5920 5921 5921 5922 5922 5922 5923 5922 5922 5921 5921 5920 5919 5919 5919 5918 5918 5918 5918 5919 5919 5919 5920 5921 5921 5921 5922 5922 5922 5922 5923 5924 5924 5924 5923 5924 5925 5926 5927 5928 5930 5930 5931 5931 5931 5931 5930 5930 5930 5930 5929 5928 5926 5925 5925 5924 5925 5924 5923 5922 5920 5919 5918 5917 5917 5917
5889 5891 5893 5895 5897 5899 5900 5902 5904 5906 5908 5909 5911 5912 5913 5914 5914 5915 5916 5917 5917 5918 5919 5920 5921 5921 5922 5922 5922 5922 5922 5921 5921 5920 5919 5919 5919 5918 5918 5918 5919 5919 5919 5919 5920 5920 5920 5921 5921 5921 5922 5923 5924 5924 5924 5924 5924 5924 5924 5925 5926 5928 5930 5930 5930 5931 5931 5931 5930 5930 5929 5929 5928 5926 5925 5925 5924 5924 5924 5924 5923 5921 5920 5919 5918 5917 5917 5916
5887 5889 5891 5893 5895 5897 5899 5900 5902 5904 5906 5908 5909 5910 5911 5912 5913 5914 5915 5916 5917 5918 5919 5919 5920 5921 5921 5922 5922 5922 5921 5921 5920 5920 5919 5919 5919 5919 5919 5919 5919 5919 5919 5919 5919 5920 5920 5921 5921 5922 5923 5924 5924 5924 5923 5924 5924 5924 5924 5923 5924 5926 5928 5929 5929 5930 5930 5929 5929 5929 5929 5928 5927 5926 5925 5924 5924 5924 5924 5923 5922 5921 5920 5919 5919 5918 5917 5916
5885 5887 5889 5891 5893 5895 5897 5898 5900 5902 5904 5906 5907 5909 5910 5911 5912 5913 5914 5915 5916 5917 5918 5919 5919 5920 5921 5921 5921 5921 5921 5921 5920 5920 5919 5919 5919 5919 5919 5919 5919 5919 5919 5919 5920 5920 5921 5921 5922 5923 5924 5924 5924 5924 5924 5924 5924 5924 5923 5923 5923 5924 5926 5927 5928 5928 5929 5929 5928 5928 5929 5928 5926 5925 5925 5924 5923 5923 5923 5923 5922 5921 5920 5920 5919 5919 5918 5917
5883 5885 5887 5889 5891 5893 5895 5896 5899 5901 5903 5904 5906 5907 5909 5910 5911 5912 5913 5913 5914 5916 5917 5918 5919 5919 5920 5920 5921 5921 5921 5921 5920 5919 5919 5919 5918 5918 5919 5919 5919 5919 5919 5919 5919 5920 5920 5921 5923 5924 5925 5924 5924 5924 5924 5924 5924 5924 5923 5923 5923 5923 5924 5926 5926 5927 5928 5928 5928 5928 5928 5927 5925 5925 5924 5923 5923 5923 5923 5923 5922 5921 5920 5920 5920 5919 5918 5916
5881 5883 5885 5887 5889 5891 5892 5894 5897 5899 5901 5902 5904 5906 5907 5908 5909 5910 5911 5912 5913 5914 5916 5917 5918 5918 5919 5920 5920 5920 5920 5920 5920 5919 5919 5918 5918 5918 5918 5919 5919 5919 5919 5919 5919 5919 5920 5922 5923 5924 5924 5924 5924 5924 5924 5924 5924 5924 5923 5923 5923 5922 5923 5925 5925 5926 5927 5927 5927 5928 5928 5927 5925 5924 5924 5923 5923 5923 5923 5923 5922 5921 5920 5919 5919 5918 5917 5916
5879 5881 5883 5885 5887 5888 5890 5892 5894 5897 5899 5900 5902 5904 5905 5907 5908 5909 5910 5911 5912 5913 5914 5916 5917 5917 5918 5919 5919 5919 5920 5920 5919 5919 5919 5918 5918 5918 5918 5919 5919 5918 5918 5919 5919 5919 5920 5922 5923 5923 5923 5923 5924 5924 5924 5924 5924 5924 5923 5923 5923 5922 5922 5924 5924 5925 5927 5927 5927 5928 5928 5927 5926 5924 5924 5923 5923 5923 5923 5923 5922 5921 5920 5919 5918 5918 5917 5917
5877 5879 5881 5883 5884 5886 5888 5890 5892 5895 5897 5899 5900 5902 5904 5905 5906 5907 5908 5910 5911 5912 5913 5915 5915 5916 5917 5918 5918 5918 5919 5919 5919 5918 5918 5918 5918 5917 5918 5918 5918 5918 5918 5918 5918 5919 5920 5921 5922 5923 5923 5923 5924 5924 5924 5924 5924 5923 5923 5923 5923 5922 5922 5923 5924 5924 5926 5926 5927 5928 5928 5928 5927 5925 5924 5924 5923 5923 5922 5922 5921 5920 5919 5918 5918 5917 5916 5916
5875 5877 5879 5881 5882 5884 5886 5888 5890 5893 5895 5896 5898 5900 5902 5903 5904 5906 5907 5908 5910 5911 5912 5913 5914 5915 5916 5917 5917 5917 5918 5918 5918 5918 5918 5918 5917 5917 5917 5918 5918 5918 5918 5918 5918 5919 5920 5921 5922 5923 5923 5924 5924 5924 5923 5923 5923 5923 5923 5923 5923 5923 5923 5923 5923 5924 5925 5926 5927 5928 5928 5929 5929 5927 5925 5924 5923 5923 5922 5921 5921 5920 5919 5918 5917 5917 5916 5915
5874 5875 5877 5879 5880 5882 5884 5886 5888 5890 5892 5894 5896 5898 5900 5902 5903 5904 5906 5907 5908 5909 5911 5912 5913 5914 5915 5916 5916 5917 5917 5917 5917 5917 5917 5917 5917 5916 5916 5917 5918 5918 5918 5918 5919 5919 5920 5921 5923 5923 5924 5924 5923 5923 5922 5921 5922 5923 5924 5924 5923 5922 5923 5924 5924 5924 5925 5925 5926 5927 5929 5930 5930 5928 5926 5925 5924 5923 5922 5922 5921 5920 5919 5918 5918 5917 5916 5915
5872 5873 5875 5877 5878 5880 5882 5884 5886 5888 5890 5892 5894 5896 5898 5900 5902 5903 5905 5905 5906 5907 5909 5910 5912 5913 5914 5915 5916 5916 5916 5917 5917 5917 5916 5916 5916 5916 5916 5917 5918 5918 5918 5918 5919 5920 5921 5922 5922 5923 5923 5923 5922 5921 5920 5920 5921 5922 5922 5923 5923 5922 5923 5924 5924 5924 5924 5924 5925 5927 5929 5930 5930 5929 5927 5926 5925 5924 5923 5922 5922 5921 5920 5919 5918 5918 5917 5915
5870 5871 5873 5875 5877 5878 5880 5882 5884 5886 5888 5890 5892 5894 5896 5898 5900 5902 5903 5904 5905 5906 5908 5909 5911 5912 5913 5914 5915 5915 5915 5915 5915 5915 5915 5915 5915 5915 5916 5917 5917 5917 5918 5918 5919 5920 5921 5922 5922 5923 5922 5922 5921 5919 5919 5920 5920 5921 5921 5921 5922 5923 5923 5923 5923 5923 5923 5924 5925 5926 5928 5929 5930 5929 5927 5925 5925 5924 5923 5922 5922 5921 5920 5919 5918 5917 5916 5915
5867 5869 5871 5873 5875 5876 5878 5880 5882 5884 5886 5888 5890 5892 5894 5896 5898 5900 5902 5903 5904 5905 5906 5908 5909 5910 5911 5912 5913 5914 5914 5914 5914 5914 5914 5914 5915 5915 5916 5916 5917 5917 5918 5918 5919 5920 5920 5921 5921 5922 5922 5921 5920 5918 5918 5919 5919 5919 5919 5920 5922 5922 5922 5922 5922 5922 5923 5924 5925 5925 5926 5927 5928 5928 5927 5925 5924 5923 5922 5922 5921 5920 5919 5918 5917 5917 5916 5914
5865 5867 5869 5871 5873 5875 5876 5878 5880 5882 5884 5887 5889 5891 5893 5894 5896 5898 5900 5902 5902 5904 5905 5907 5908 5909 5910 5911 5912 5912 5912 5912 5913 5913 5913 5914 5914 5915 5915 5916 5916 5916 5917 5917 5918 5918 5919 5919 5919 5920 5921 5920 5919 5918 5918 5919 5919 5919 5919 5920 5921 5921 5921 5921 5921 5922 5923 5924 5924 5924 5924 5925 5926 5926 5926 5925 5923 5923 5922 5921 5920 5919 5919 5918 5917 5916 5915 5914
5863 5865 5867 5869 5871 5873 5874 5876 5878 5880 5883 5885 5887 5889 5891 5893 5894 5896 5898 5900 5901 5902 5904 5905 5907 5908 5908 5909 5910 5911 5911 5911 5912 5912 5913 5913 5913 5914 5915 5915 5915 5915 5915 5915 5916 5917 5918 5918 5917 5918 5919 5919 5919 5918 5918 5918 5919 5919 5919 5919 5920 5920 5920 5921 5922 5923 5923 5923 5924 5923 5923 5924 5925 5925 5925 5924 5923 5922 5921 5921 5920 5919 5918 5917 5916 5915 5914 5912
5860 5863 5865 5867 5869 5871 5872 5874 5876 5878 5881 5883 5885 5887 5889 5891 5893 5894 5896 5898 5900 5901 5903 5904 5905 5906 5907 5908 5909 5910 5911 5910 5911 5912 5912 5912 5912 5913 5913 5913 5913 5913 5913 5914 5915 5917 5917 5917 5916 5916 5918 5918 5918 5918 5918 5918 5918 5919 5919 5919 5920 5919 5919 5920 5921 5921 5922 5922 5922 5922 5922 5922 5923 5924 5924 5924 5923 5922 5921 5920 5919 5919 5918 5917 5916 5914 5913 5911
5858 5860 5862 5865 5867 5869 5870 5872 5874 5877 5879 5881 5883 5885 5887 5889 5891 5893 5895 5897 5899 5900 5901 5903 5904 5905 5906 5907 5909 5910 5910 5909 5910 5910 5911 5911 5911 5911 5911 5911 5911 5911 5912 5913 5914 5915 5916 5916 5915 5916 5916 5917 5917 5917 5918 5918 5918 5918 5918 5919 5919 5919 5919 5919 5920 5920 5920 5920 5920 5921 5921 5921 5921 5922 5923 5923 5922 5921 5921 5920 5919 5918 5917 5916 5915 5914 5913 5911
5856 5858 5860 5862 5865 5866 5868 5870 5872 5875 5877 5879 5881 5883 5885 5887 5889 5891 5893 5895 5897 5898 5900 5902 5903 5904 5905 5906 5907 5909 5908 5908 5909 5909 5910 5910 5910 5910 5910 5910 5910 5910 5911 5912 5913 5913 5913 5914 5914 5915 5915 5915 5916 5916 5917 5918 5918 5918 5917 5918 5918 5918 5918 5918 5919 5919 5919 5919 5919 5920 5919 5919 5920 5921 5921 5922 5922 5921 5920 5919 5919 5918 5917 5916 5915 5913 5912 5910
5854 5856 5857 5860 5862 5864 5866 5868 5871 5873 5875 5877 5879 5881 5883 5885 5887 5889 5892 5894 5895 5897 5898 5900 5901 5903 5904 5904 5905 5906 5907 5907 5908 5908 5909 5909 5909 5909 5910 5910 5909 5910 5911 5912 5913 5913 5912 5912 5913 5914 5914 5915 5915 5916 5916 5917 5917 5917 5917 5917 5917 5918 5918 5918 5918 5918 5918 5917 5918 5918 5918 5918 5919 5920 5920 5921 5921 5920 5919 5919 5918 5917 5916 5915 5914 5912 5911 5909
5852 5853 5855 5857 5859 5862 5864 5866 5868 5871 5873 5875 5877 5879 5881 5883 5886 5888 5890 5892 5893 5895 5896 5898 5900 5901 5902 5903 5903 5904 5905 5905 5906 5907 5907 5908 5908 5908 5908 5908 5908 5909 5910 5911 5911 5911 5910 5911 5911 5912 5913 5914 5915 5915 5915 5916 5916 5916 5916 5916 5917 5917 5918 5918 5918 5918 5917 5916 5917 5916 5916 5916 5918 5919 5920 5920 5920 5919 5918 5918 5917 5916 5915 5914 5913 5912 5910 5908
5850 5851 5853 5855 5857 5859 5861 5864 5866 5869 5871 5873 5875 5877 5879 5882 5884 5886 5888 5890 5891 5893 5894 5896 5898 5899 5900 5901 5902 5902 5903 5903 5904 5905 5905 5906 5906 5906 5906 5906 5906 5907 5908 5909 5909 5909 5909 5910 5910 5911 5912 5912 5913 5913 5913 5914 5915 5915 5915 5915 5916 5916 5917 5917 5918 5917 5916 5915 5915 5914 5914 5915 5917 5918 5918 5918 5918 5918 5917 5916 5916 5915 5914 5913 5912 5912 5910 5908
5848 5849 5851 5853 5854 5856 5859 5861 5864 5866 5868 5871 5873 5875 5877 5880 5882 5884 5886 5888 5889 5891 5892 5894 5895 5896 5898 5899 5900 5901 5901 5901 5902 5903 5904 5904 5904 5904 5904 5905 5905 5905 5906 5907 5907 5908 5908 5909 5909 5910 5910 5911 5911 5912 5912 5913 5913 5913 5913 5914 5915 5915 5915 5916 5916 5916 5915 5915 5914 5913 5913 5914 5915 5917 5917 5917 5916 5916 5915 5915 5914 5913 5913 5912 5912 5911 5909 5907
5846 5847 5849 5851 5852 5854 5856 5859 5862 5864 5866 5868 5870 5872 5875 5877 5880 5882 5884 5885 5887 5888 5888 5889 5892 5894 5895 5897 5898 5899 5900 5900 5900 5900 5901 5902 5902 5902 5902 5903 5903 5904 5905 5905 5906 5906 5907 5907 5908 5908 5909 5909 5910 5910 5911 5911 5911 5911 5912 5912 5913 5913 5913 5914 5914 5914 5914 5913 5912 5911 5911 5912 5913 5914 5915 5915 5914 5914 5914 5913 5912 5912 5911 5911 5910 5909 5907 5905
5843 5845 5847 5848 5850 5851 5854 5857 5859 5861 5863 5865 5868 5870 5872 5875 5878 5880 5881 5882 5883 5883 5884 5886 5888 5890 5892 5894 5896 5897 5898 5898 5898 5898 5899 5899 5899 5899 5900 5900 5901 5902 5903 5903 5904 5905 5905 5906 5907 5907 5908 5908 5908 5908 5909 5909 5909 5909 5910 5910 5910 5911 5911 5911 5911 5911 5911 5911 5910 5909 5909 5910 5911 5912 5912 5913 5912 5912 5912 5911 5910 5910 5910 5909 5908 5907 5905 5903
5841 5843 5845 5846 5848 5849 5852 5854 5857 5859 5861 5863 5865 5867 5870 5873 5876 5877 5877 5878 5879 5880 5882 5884 5885 5887 5889 5891 5893 5894 5895 5896 5896 5896 5897 5897 5897 5897 5898 5899 5899 5901 5901 5901 5902 5903 5904 5905 5906 5906 5906 5907 5907 5907 5906 5906 5907 5907 5908 5908 5909 5909 5909 5909 5909 5908 5909 5909 5908 5907 5907 5908 5909 5910 5910 5910 5910 5910 5910 5909 5908 5908 5908 5907 5906 5904 5902 5901
5839 5841 5842 5844 5845 5847 5850 5852 5854 5856 5859 5861 5863 5865 5869 5871 5872 5873 5874 5875 5877 5879 5880 5882 5884 5885 5887 5888 5890 5891 5892 5893 5894 5895 5895 5895 5895 5896 5896 5897 5898 5899 5899 5899 5900 5901 5903 5904 5904 5905 5905 5905 5905 5905 5904 5905 5906 5906 5906 5906 5907 5907 5907 5907 5907 5906 5906 5906 5906 5905 5905 5906 5907 5908 5908 5908 5908 5908 5907 5907 5907 5906 5905 5904 5903 5901 5900 5898
5836 5838 5840 5841 5843 5845 5847 5850 5852 5854 5856 5858 5861 5864 5866 5868 5869 5870 5871 5872 5875 5877 5879 5880 5882 5883 5884 5886 5887 5888 5889 5890 5891 5893 5894 5893 5893 5894 5894 5895 5896 5897 5898 5899 5899 5900 5902 5903 5903 5903 5903 5903 5903 5903 5903 5904 5904 5904 5904 5905 5905 5905 5905 5906 5905 5905 5904 5904 5903 5903 5903 5904 5905 5906 5906 5906 5906 5905 5905 5905 5904 5904 5903 5901 5900 5899 5897 5895
5834 5836 5837 5838 5840 5842 5845 5847 5849 5851 5854 5856 5859 5862 5864 5864 5866 5867 5868 5870 5872 5875 5877 5878 5879 5880 5881 5882 5883 5884 5885 5887 5889 5891 5891 5891 5891 5892 5892 5893 5894 5896 5897 5897 5898 5899 5900 5901 5901 5902 5902 5901 5901 5901 5902 5902 5902 5903 5902 5903 5903 5903 5903 5904 5903 5903 5902 5902 5901 5901 5901 5902 5902 5903 5904 5903 5903 5903 5903 5903 5902 5901 5900 5899 5897 5896 5894 5892
5831 5833 5834 5835 5837 5839 5841 5844 5846 5849 5851 5854 5857 5860 5861 5862 5863 5864 5866 5868 5870 5872 5874 5875 5876 5877 5878 5879 5880 5881 5882 5884 5886 5887 5888 5889 5889 5890 5891 5891 5892 5894 5895 5896 5896 5897 5898 5899 5899 5900 5900 5900 5899 5900 5900 5900 5901 5901 5901 5901 5901 5901 5901 5901 5901 5900 5900 5899 5899 5899 5899 5899 5900 5901 5901 5901 5900 5900 5900 5900 5899 5898 5897 5896 5894 5892 5891 5888
5828 5830 5831 5833 5835 5837 5839 5841 5844 5846 5848 5852 5856 5857 5858 5859 5860 5862 5863 5865 5867 5869 5870 5872 5873 5874 5876 5877 5878 5879 5880 5882 5883 5884 5885 5886 5887 5888 5890 5890 5891 5893 5894 5895 5895 5895 5896 5897 5897 5897 5898 5898 5898 5898 5899 5899 5899 5899 5899 5899 5899 5899 5898 5898 5898 5898 5898 5897 5896 5896 5896 5897 5898 5898 5898 5898 5897 5897 5897 5897 5896 5895 5894 5892 5891 5889 5887 5884
5825 5827 5828 5830 5832 5835 5837 5839 5841 5843 5846 5850 5853 5855 5856 5857 5858 5859 5860 5862 5865 5866 5867 5869 5871 5872 5873 5875 5876 5876 5878 5879 5880 5881 5882 5883 5884 5886 5887 5889 5890 5891 5892 5893 5894 5894 5894 5895 5896 5895 5895 5896 5896 5896 5896 5896 5896 5897 5897 5897 5897 5896 5896 5896 5896 5896 5895 5895 5894 5893 5893 5895 5896 5895 5895 5895 5895 5895 5894 5894 5893 5892 5891 5889 5887 5886 5884 5881
5823 5824 5826 5827 5829 5831 5834 5836 5838 5841 5843 5847 5850 5852 5853 5854 5855 5856 5857 5859 5861 5863 5865 5867 5869 5870 5871 5872 5873 5874 5875 5877 5878 5878 5879 5879 5881 5883 5884 5886 5888 5890 5891 5891 5892 5892 5892 5893 5894 5894 5893 5894 5894 5894 5894 5894 5894 5894 5895 5895 5895 5894 5894 5893 5893 5893 5893 5892 5891 5890 5890 5892 5893 5892 5892 5892 5892 5892 5891 5891 5890 5889 5887 5886 5884 5883 5881 5878
5820 5821 5823 5824 5826 5828 5830 5832 5835 5837 5840 5843 5846 5848 5849 5850 5852 5853 5854 5857 5858 5860 5863 5865 5866 5867 5869 5870 5870 5872 5873 5874 5875 5875 5876 5877 5879 5880 5882 5883 5885 5887 5888 5889 5889 5890 5890 5891 5892 5892 5891 5891 5892 5891 5891 5891 5891 5892 5892 5892 5892 5892 5892 5891 5891 5891 5890 5890 5889 5888 5888 5890 5890 5889 5889 5889 5889 5888 5888 5887 5886 5885 5884 5882 5881 5879 5877 5875
5817 5818 5820 5821 5823 5825 5827 5829 5831 5834 5836 5838 5841 5843 5845 5847 5850 5850 5852 5854 5856 5858 5861 5862 5863 5865 5867 5867 5868 5869 5870 5871 5872 5873 5874 5875 5877 5878 5880 5881 5883 5884 5885 5886 5886 5887 5888 5889 5889 5890 5889 5889 5889 5888 5888 5889 5889 5890 5889 5889 5890 5889 5889 5888 5888 5888 5887 5887 5887 5886 5885 5887 5887 5886 5886 5886 5885 5884 5884 5884 5883 5881 5880 5879 5878 5876 5874 5872
5814 5816 5817 5819 5821 5822 5824 5826 5828 5830 5832 5835 5838 5841 5843 5845 5848 5848 5849 5851 5854 5856 5858 5859 5861 5863 5865 5865 5866 5867 5868 5869 5870 5870 5871 5873 5875 5876 5877 5878 5880 5881 5882 5883 5884 5885 5886 5886 5887 5887 5887 5886 5886 5886 5887 5887 5887 5887 5887 5886 5886 5886 5886 5885 5885 5884 5883 5884 5884 5883 5883 5884 5884 5883 5883 5882 5882 5881 5881 5881 5880 5878 5877 5875 5874 5873 5871 5868
5811 5813 5814 5816 5818 5819 5820 5822 5825 5827 5830 5832 5836 5838 5840 5842 5845 5845 5845 5847 5850 5853 5855 5857 5858 5860 5861 5863 5864 5865 5865 5866 5867 5867 5868 5870 5872 5873 5874 5875 5877 5878 5879 5880 5881 5882 5883 5883 5884 5884 5884 5884 5884 5885 5885 5885 5884 5884 5884 5884 5883 5883 5882 5882 5882 5881 5881 5881 5881 5880 5880 5881 5881 5880 5880 5879 5878 5878 5878 5878 5877 5875 5873 5872 5871 5869 5867 5865
5808 5810 5811 5813 5815 5817 5818 5820 5822 5824 5827 5829 5832 5835 5836 5839 5841 5842 5842 5844 5847 5850 5853 5854 5855 5857 5858 5859 5861 5862 5862 5863 5864 5865 5865 5867 5869 5870 5871 5872 5874 5875 5875 5876 5877 5878 5879 5880 5880 5881 5882 5882 5883 5883 5883 5883 5882 5882 5882 5881 5881 5880 5879 5879 5879 5878 5878 5878 5877 5877 5877 5877 5877 5877 5877 5876 5876 5875 5875 5874 5873 5872 5870 5869 5868 5866 5864 5862
5805 5806 5808 5810 5812 5814 5815 5816 5819 5821 5823 5826 5828 5830 5832 5834 5836 5837 5839 5841 5843 5845 5848 5849 5851 5853 5854 5856 5857 5858 5859 5860 5862 5862 5863 5864 5866 5867 5868 5869 5870 5871 5872 5872 5872 5873 5876 5877 5877 5879 5879 5880 5881 5881 5881 5881 5881 5880 5880 5879 5879 5877 5876 5876 5876 5876 5875 5874 5874 5875 5873 5872 5873 5874 5874 5873 5873 5872 5871 5871 5869 5868 5867 5866 5864 5862 5860 5858
5801 5803 5804 5806 5808 5810 5811 5813 5816 5818 5819 5821 5824 5826 5827 5829 5832 5833 5835 5837 5839 5840 5842 5844 5847 5849 5850 5851 5853 5854 5855 5856 5858 5859 5860 5862 5863 5864 5865 5866 5867 5867 5868 5869 5869 5870 5873 5874 5875 5876 5877 5877 5878 5878 5878 5878 5878 5878 5877 5877 5876 5875 5873 5873 5873 5873 5871 5869 5870 5871 5870 5869 5870 5870 5869 5869 5868 5868 5868 5868 5867 5865 5864 5862 5860 5858 5856 5855
5798 5799 5800 5802 5805 5807 5808 5810 5813 5814 5816 5818 5820 5822 5824 5826 5829 5830 5832 5834 5835 5836 5838 5840 5842 5843 5844 5846 5848 5849 5850 5852 5855 5856 5858 5859 5860 5861 5862 5863 5863 5864 5865 5866 5867 5867 5870 5871 5871 5872 5874 5874 5874 5874 5874 5873 5873 5874 5874 5873 5873 5872 5871 5869 5868 5868 5867 5865 5866 5867 5865 5865 5866 5866 5865 5865 5864 5864 5864 5864 5863 5861 5859 5858 5856 5854 5853 5851
5793 5795 5797 5799 5801 5803 5804 5806 5809 5810 5812 5815 5817 5818 5821 5823 5825 5827 5829 5831 5832 5833 5834 5836 5838 5840 5842 5844 5845 5846 5847 5849 5851 5853 5854 5856 5857 5858 5860 5860 5860 5861 5862 5863 5863 5864 5867 5868 5867 5869 5870 5870 5870 5870 5869 5869 5868 5869 5870 5869 5868 5868 5867 5865 5865 5864 5862 5862 5862 5862 5862 5863 5864 5863 5862 5861 5860 5860 5859 5859 5858 5856 5855 5853 5851 5850 5849 5847
5789 5791 5793 5795 5796 5799 5801 5803 5805 5807 5809 5811 5813 5815 5818 5820 5822 5823 5825 5826 5828 5829 5830 5833 5836 5837 5839 5841 5842 5844 5845 5846 5848 5849 5850 5852 5853 5855 5856 5857 5857 5858 5858 5859 5860 5861 5863 5864 5864 5865 5866 5866 5866 5865 5864 5864 5863 5864 5865 5865 5864 5863 5862 5862 5861 5860 5859 5858 5859 5858 5859 5860 5861 5859 5858 5858 5857 5856 5855 5854 5853 5851 5850 5849 5847 5846 5844 5843
5784 5786 5789 5790 5792 5795 5797 5799 5801 5803 5805 5808 5810 5812 5815 5817 5818 5819 5821 5822 5824 5825 5827 5830 5833 5835 5836 5838 5839 5840 5841 5843 5844 5846 5847 5848 5849 5850 5852 5853 5854 5854 5855 5856 5857 5857 5858 5860 5862 5862 5862 5861 5861 5860 5859 5859 5858 5860 5862 5861 5859 5858 5857 5857 5857 5857 5855 5855 5855 5855 5855 5856 5856 5855 5855 5854 5854 5853 5852 5850 5849 5848 5846 5844 5843 5842 5840 5839